Weather Roundup
Issued by NWS Chicago, IL

Home | Current Version | Previous Version | Text Only | Print | Product List | Glossary Off
Versions: 1 2 3 4 5 6 7 8 9 10 11 12 13 14 15 16 17 18 19 20 21 22 23 24 25 26 27 28 29 30 31 32 33 34 35 36 37 38 39 40 41 42 43 44 45 46 47 48 49 50

000
NZUS59 KLOT 140200
HRRLOT

CHICAGO AREA WEATHER ROUNDUP
NATIONAL WEATHER SERVICE CHICAGO/ROMEOVILLE IL
900 PM CDT SUN JUL 13 2014

NOTE: "FAIR" INDICATES FEW OR NO CLOUDS BELOW 12,000 FEET WITH NO
SIGNIFICANT WEATHER AND/OR OBSTRUCTIONS TO VISIBILITY.

* THESE STATIONS ARE NOT UNDER NWS QUALITY CONTROL. THEY ALSO MAY NOT
  REPORT WEATHER SUCH AS PRECIPITATION OR FOG.

ILZ005-006-012>014-019>023-140300-
NORTHEAST ILLINOIS

CITY           SKY/WX    TMP DP  RH WIND       PRES   REMARKS
OHARE          MOCLDY    78  64  61 W12       29.87F HX  80
MIDWAY         MOCLDY    79  66  64 SW13      29.88S HX  81
AURORA         CLOUDY    72  66  81 SW6       29.90F
WAUKEGAN       PTCLDY    75  61  61 VRB3      29.87S
DUPAGE AIRPORT CLOUDY    75  66  73 W8        29.89S
WHEELING       MOCLDY    80  65  59 W9        29.88S HX  82
NORTHERLY IS     N/A     80  62  54 W6          N/A  HX  81
$$

WIZ051-052-058>065-066-070>072-140300-
SOUTHEAST WISCONSIN

CITY           SKY/WX    TMP DP  RH WIND       PRES   REMARKS
MILWAUKEE      PTCLDY    71  59  65 NE3       29.88S
KENOSHA*       PTCLDY    73  61  65 VRB6      29.88S
RACINE*        CLEAR     71  61  70 CALM      29.90R
WAUKESHA       PTCLDY    70  55  60 NW9       29.90S
$$

INZ001>003-010>013-019-020-140300-
NORTHWEST INDIANA

CITY           SKY/WX    TMP DP  RH WIND       PRES   REMARKS
GARY*          MOCLDY    81  63  54 SW7       29.89S HX  82
MICHIGAN CITY* NOT AVBL
RENSSELAER*    NOT AVBL
VALPARAISO     CLEAR     74  65  73 SW7       29.91R
$$

LMZ740>746-140300-
SOUTHERN LAKE MICHIGAN

STATION/POSITION TIME  SKY/WX   TEMP WIND        PRES    VSBY
                                AIR  DIR/SP/G
                 (UTC)          (F)  (DEG/KT/KT) (MB)    (MI)
HARRISON CRIB    0100            79  260/  7/ 10   N/A
BURNHAM HARBOR   0200            80  270/  8/ 13   N/A
CALUMET HARBOR   0100            80  230/  5/  8 1012.7S
BURNS HARBOR     0100            80  220/  8/ 11 1012.2F
MICHIGAN CITY    0100            80  200/  6/  7   N/A
$$

ABBREVIATIONS USED IN REMARKS
   TC - TEMPERATURE IN CELSIUS
  WCI - WIND CHILL INDEX
   HX - HEAT INDEX
  VSB - VISIBILITY
$$



USA.gov is the U.S. government's official web portal to all federal, state and local government web resources and services.